User: anonymous   Login
Location: Newark
(25.0000°N, 73.5000°E)
Time: 14:32:49
(UTC+00:00)
Language:

BEESAT 2 - Orbit

View from above orbital plane
View from above orbital plane
View from above satellite
View from above satellite

Ground track
Ground track

The orbit data is extracted from the following two-line orbital elements,

1 39136U 13015G   20048.88177176 +.00000461 +00000-0 +32818-4 0  9998
2 39136 064.8703 335.3304 0030026 278.9189 080.8538 15.17333090376828
Epoch (UTC): 17 February 2020 21:09:45
Eccentricity: 0.0030026
inclination: 64.8703°
perigee height: 493 km
apogee height: 534 km
right ascension of ascending node: 335.3304°
argument of perigee: 278.9189°
revolutions per day: 15.17333090
mean anomaly at epoch: 80.8538°
orbit number at epoch: 37682

The dashed part of the orbit path shows where the satellite is in the earth's shadow,  

DLR